Zurück zum Katalog

DELTA 1 DEB

AktivSSO
NORAD 12265·DEBRIS·🇺🇸 United States

Gestartet Mar 5, 1978 von Vandenberg Space Force Base

Loading…

Nächste Überflüge (nächste 24 Stunden)

TLE

AktuellSource: Space-Track

Epoche: Sep 14, 2026, 00:42 UTC

1 12265U 78026DJ  26257.02979756  .00003570  00000-0  10856-2 0  9993
2 12265  98.8521  83.2722 0103464 181.8008 331.4477 14.39684592326044

Verfolge DELTA 1 DEB in Echtzeit mit AllMySat

Download on the App Store